EW4675 Weather Reports


Display with metric or nautical units.
time (UTC)temp
F
wind
direction
speed
MPH
gust
MPH
rain 1hr
in
rain 24hr
in
rain mn
in
humidity
%
barometer
mb
20260506013502 72 232 3.0 8.0 0.00 0.00 0.00 48 1008.5
20260506013003 72 213 2.0 5.0 0.00 0.00 0.00 48 1008.4
20260506012502 72 164 4.0 12.0 0.00 0.00 0.00 48 1008.3
20260506012003 72 180 5.0 10.0 0.00 0.00 0.00 47 1008.3
20260506011503 72 203 5.0 9.0 0.00 0.00 0.00 47 1008.2
20260506011002 73 114 3.0 7.0 0.00 0.00 0.00 46 1008.3
20260506010503 73 221 2.0 12.0 0.00 0.00 0.00 46 1008.1
20260506005503 73 245 4.0 9.0 0.00 0.00 0.00 44 1008.1
20260506004002 73 214 4.0 8.0 0.00 0.00 0.00 42 1008.0
20260506003505 74 163 2.0 5.0 0.00 0.00 0.00 42 1007.9
20260506003002 74 193 3.0 6.0 0.00 0.00 0.00 42 1007.8
20260506002503 74 165 3.0 10.0 0.00 0.00 0.00 42 1007.8
20260506002003 74 133 3.0 12.0 0.00 0.00 0.00 41 1007.7
20260506001504 74 207 3.0 7.0 0.00 0.00 0.00 41 1007.7
20260506001002 74 170 2.0 6.0 0.00 0.00 0.00 41 1007.6
20260506000503 74 191 1.0 7.0 0.00 0.00 0.00 41 1007.6
20260506000003 75 176 3.0 6.0 0.00 0.00 0.00 40 1007.5
20260505235502 75 181 3.0 10.0 0.00 0.00 0.00 40 1007.7
20260505234003 75 210 3.0 10.0 0.00 0.00 0.00 39 1007.5
20260505233503 75 199 3.0 7.0 0.00 0.00 0.00 39 1007.6
20260505232502 75 134 4.0 9.0 0.00 0.00 0.00 38 1007.5
20260505232003 76 221 3.0 9.0 0.00 0.00 0.00 38 1007.6
20260505231503 76 219 3.0 8.0 0.00 0.00 0.00 38 1007.5
20260505231003 76 185 3.0 6.0 0.00 0.00 0.00 38 1007.4
20260505230503 76 317 1.0 10.0 0.00 0.00 0.00 38 1007.3
20260505230002 76 235 3.0 9.0 0.00 0.00 0.00 37 1007.4
20260505225503 76 266 3.0 8.0 0.00 0.00 0.00 37 1007.4
20260505225003 76 239 4.0 12.0 0.00 0.00 0.00 37 1007.4
20260505224502 77 202 5.0 12.0 0.00 0.00 0.00 37 1007.2
20260505224003 77 244 5.0 10.0 0.00 0.00 0.00 36 1007.2
20260505223502 77 233 3.0 9.0 0.00 0.00 0.00 36 1007.3
20260505223003 77 223 3.0 6.0 0.00 0.00 0.00 36 1007.1
20260505222502 77 304 6.0 13.0 0.00 0.00 0.00 35 1007.0
20260505222003 78 259 5.0 10.0 0.00 0.00 0.00 35 1007.1
20260505221503 78 279 5.0 12.0 0.00 0.00 0.00 35 1007.0
20260505221002 79 260 2.0 6.0 0.00 0.00 0.00 35 1006.9
20260505220502 79 222 4.0 14.0 0.00 0.00 0.00 35 1007.0
20260505220002 79 205 3.0 12.0 0.00 0.00 0.00 34 1007.0
20260505215502 79 242 5.0 14.0 0.00 0.00 0.00 34 1006.9
20260505215003 79 196 5.0 13.0 0.00 0.00 0.00 34 1006.7
20260505214502 79 224 7.0 18.0 0.00 0.00 0.00 33 1006.7
20260505213503 80 244 7.0 17.0 0.00 0.00 0.00 34 1006.8
20260505212503 80 252 6.0 15.0 0.00 0.00 0.00 33 1006.7
20260505211502 80 198 6.0 14.0 0.00 0.00 0.00 33 1006.8
20260505211003 80 221 3.0 9.0 0.00 0.00 0.00 34 1006.7
20260505210502 79 150 2.0 7.0 0.00 0.00 0.00 33 1006.4
20260505210003 79 183 5.0 12.0 0.00 0.00 0.00 32 1006.5
20260505205506 80 192 3.0 10.0 0.00 0.00 0.00 32 1006.3
20260505204503 81 259 6.0 12.0 0.00 0.00 0.00 31 1006.4
20260505204003 81 267 6.0 16.0 0.00 0.00 0.00 32 1006.3
20260505203505 81 239 4.0 12.0 0.00 0.00 0.00 33 1006.3
20260505203003 81 186 3.0 12.0 0.00 0.00 0.00 33 1006.5
20260505202503 80 248 3.0 17.0 0.00 0.00 0.00 32 1006.5
20260505202002 81 256 9.0 17.0 0.00 0.00 0.00 32 1006.7
20260505201502 81 199 3.0 12.0 0.00 0.00 0.00 33 1006.6
20260505200503 80 281 7.0 17.0 0.00 0.00 0.00 32 1006.6
20260505200003 81 202 7.0 14.0 0.00 0.00 0.00 30 1006.7
20260505195503 81 275 6.0 15.0 0.00 0.00 0.00 32 1006.7
20260505195003 81 288 7.0 15.0 0.00 0.00 0.00 31 1006.7
20260505194003 81 207 7.0 16.0 0.00 0.00 0.00 33 1006.8
20260505193003 82 216 5.0 12.0 0.00 0.00 0.00 34 1006.7
20260505192003 82 281 4.0 12.0 0.00 0.00 0.00 34 1006.9
20260505191503 81 271 5.0 16.0 0.00 0.00 0.00 34 1007.0
20260505191002 81 293 7.0 13.0 0.00 0.00 0.00 33 1007.0
20260505190502 81 220 5.0 18.0 0.00 0.00 0.00 34 1007.0
20260505190003 82 312 5.0 12.0 0.00 0.00 0.00 33 1007.3
20260505185503 82 239 5.0 12.0 0.00 0.00 0.00 35 1007.2
20260505185003 81 230 4.0 12.0 0.00 0.00 0.00 36 1007.2
20260505184503 81 246 6.0 14.0 0.00 0.00 0.00 35 1007.3
20260505183503 80 223 2.0 9.0 0.00 0.00 0.00 39 1007.4
20260505183002 80 248 8.0 15.0 0.00 0.00 0.00 39 1007.5
20260505182503 80 306 7.0 12.0 0.00 0.00 0.00 37 1007.7
20260505182002 80 199 4.0 13.0 0.00 0.00 0.00 38 1007.7
20260505181502 80 300 9.0 16.0 0.00 0.00 0.00 38 1007.8
20260505181003 80 215 6.0 13.0 0.00 0.00 0.00 38 1007.8
20260505180503 80 277 7.0 18.0 0.00 0.00 0.00 35 1008.1
20260505180002 80 297 5.0 26.0 0.00 0.00 0.00 37 1007.8
20260505175003 80 283 5.0 17.0 0.00 0.00 0.00 38 1007.8
20260505174003 80 195 4.0 9.0 0.00 0.00 0.00 39 1007.9
20260505173503 80 288 5.0 14.0 0.00 0.00 0.00 39 1007.8
20260505173003 80 329 7.0 14.0 0.00 0.00 0.00 39 1007.9
20260505172503 80 250 5.0 12.0 0.00 0.00 0.00 40 1008.0
20260505172003 80 213 3.0 8.0 0.00 0.00 0.00 41 1008.0
20260505171503 79 223 3.0 14.0 0.00 0.00 0.00 43 1008.0
20260505165503 77 220 5.0 9.0 0.00 0.00 0.00 46 1008.6
20260505165003 77 289 3.0 8.0 0.00 0.00 0.00 45 1008.6
20260505164506 76 205 3.0 10.0 0.00 0.00 0.00 46 1008.6
20260505164003 77 310 5.0 10.0 0.00 0.00 0.00 46 1008.6
20260505163003 76 284 4.0 12.0 0.00 0.00 0.00 47 1008.8
20260505162503 76 293 4.0 9.0 0.00 0.00 0.00 46 1008.8
20260505162002 76 331 5.0 12.0 0.00 0.00 0.00 49 1008.9
20260505161503 75 301 4.0 8.0 0.00 0.00 0.00 47 1008.9
20260505161002 75 312 6.0 15.0 0.00 0.00 0.00 48 1008.9
20260505160503 75 325 5.0 12.0 0.00 0.00 0.00 48 1009.0
20260505153003 73 301 5.0 10.0 0.00 0.00 0.00 50 1009.4
20260505152503 73 263 5.0 12.0 0.00 0.00 0.00 51 1009.6
20260505152002 73 311 3.0 7.0 0.00 0.00 0.00 53 1009.6
20260505151503 72 255 2.0 7.0 0.00 0.00 0.00 52 1009.5
20260505150503 71 316 3.0 7.0 0.00 0.00 0.00 53 1009.6
20260505140502 69 287 6.0 12.0 0.00 0.00 0.00 55 1010.0
20260505124503 64 291 2.0 5.0 0.00 0.00 0.00 67 1010.0
20260505124003 64 236 2.0 7.0 0.00 0.00 0.00 67 1009.8
20260505123503 63 326 1.0 5.0 0.00 0.00 0.00 68 1009.7
20260505123003 63 221 2.0 3.0 0.00 0.00 0.00 69 1009.5
20260505122502 63 255 3.0 9.0 0.00 0.00 0.00 70 1009.6
20260505121502 62 167 2.0 7.0 0.00 0.00 0.00 72 1009.7
20260505120503 62 151 3.0 7.0 0.00 0.00 0.00 74 1009.4
20260505120003 61 155 3.0 8.0 0.00 0.00 0.00 76 1009.6
20260505115503 61 161 2.0 8.0 0.00 0.00 0.00 76 1009.7
20260505114502 60 169 2.0 3.0 0.00 0.00 0.00 76 1009.7
20260505114003 60 271 0.0 2.0 0.00 0.00 0.00 77 1009.7
20260505113503 59 138 1.0 3.0 0.00 0.00 0.00 76 1009.7
20260505113003 59 144 2.0 3.0 0.00 0.00 0.00 78 1009.6
20260505112502 58 167 2.0 5.0 0.00 0.00 0.00 79 1009.5
20260505112003 57 166 1.0 5.0 0.00 0.00 0.00 80 1009.5
20260505111503 57 157 1.0 6.0 0.00 0.00 0.00 80 1009.4
20260505111002 57 152 3.0 7.0 0.00 0.00 0.00 80 1009.3
20260505110502 57 144 3.0 5.0 0.00 0.00 0.00 80 1009.3
20260505101503 58 227 2.0 6.0 0.00 0.00 0.00 70 1009.8
20260505101003 59 236 3.0 10.0 0.00 0.00 0.00 68 1009.9
20260505100503 58 278 3.0 9.0 0.00 0.00 0.00 67 1009.8
20260505100004 58 175 4.0 6.0 0.00 0.00 0.00 68 1009.8
20260505095503 58 192 2.0 5.0 0.00 0.00 0.00 68 1009.6
20260505095003 57 228 1.0 5.0 0.00 0.00 0.00 68 1009.5
20260505094502 57 241 1.0 3.0 0.00 0.00 0.00 68 1009.6
20260505094003 57 246 0.0 2.0 0.00 0.00 0.00 68 1009.5
20260505093003 57 226 1.0 3.0 0.00 0.00 0.00 68 1009.4
20260505092503 57 242 1.0 2.0 0.00 0.00 0.00 68 1009.3
20260505091503 57 174 2.0 5.0 0.00 0.00 0.00 68 1009.3
20260505091003 57 208 1.0 3.0 0.00 0.00 0.00 68 1009.1
20260505090003 57 216 2.0 3.0 0.00 0.00 0.00 67 1008.9
20260505085503 57 175 3.0 5.0 0.00 0.00 0.00 67 1008.8
20260505085003 57 220 2.0 3.0 0.00 0.00 0.00 67 1009.0
20260505084002 56 168 2.0 5.0 0.00 0.00 0.00 67 1008.9
20260505083504 57 148 1.0 3.0 0.00 0.00 0.00 66 1008.8
20260505083003 57 159 1.0 3.0 0.00 0.00 0.00 66 1008.9
20260505082503 57 188 1.0 3.0 0.00 0.00 0.00 65 1008.9
20260505082003 57 157 1.0 3.0 0.00 0.00 0.00 65 1008.9
20260505081504 57 198 1.0 3.0 0.00 0.00 0.00 65 1008.8
20260505081003 58 183 1.0 3.0 0.00 0.00 0.00 64 1008.8
20260505080503 58 204 1.0 2.0 0.00 0.00 0.00 64 1008.8
20260505075503 58 196 2.0 3.0 0.00 0.00 0.00 64 1008.9
20260505075005 58 199 2.0 5.0 0.00 0.00 0.00 63 1009.0
20260505074003 58 169 1.0 8.0 0.00 0.00 0.00 63 1009.0
20260505073504 58 171 2.0 3.0 0.00 0.00 0.00 63 1009.0
20260505073003 58 240 1.0 3.0 0.00 0.00 0.00 63 1008.9
20260505072502 58 174 4.0 8.0 0.00 0.00 0.00 62 1008.9
20260505072003 58 339 3.0 7.0 0.00 0.00 0.00 62 1008.9
20260505071502 58 172 2.0 7.0 0.00 0.00 0.00 62 1008.8
20260505071003 58 190 2.0 7.0 0.00 0.00 0.00 62 1008.9
20260505070504 58 184 2.0 7.0 0.00 0.00 0.00 62 1008.9
20260505070003 58 194 4.0 8.0 0.00 0.00 0.00 62 1008.8
20260505065502 58 177 3.0 6.0 0.00 0.00 0.00 62 1008.9
20260505065003 58 257 2.0 9.0 0.00 0.00 0.00 62 1008.9
20260505064503 58 120 2.0 6.0 0.00 0.00 0.00 61 1009.0
20260505064003 58 199 2.0 5.0 0.00 0.00 0.00 61 1009.0
20260505063503 58 196 2.0 5.0 0.00 0.00 0.00 61 1009.1
20260505063003 58 205 1.0 7.0 0.00 0.00 0.00 60 1009.0
20260505062003 58 181 1.0 6.0 0.00 0.00 0.00 59 1009.0
20260505061503 59 194 2.0 6.0 0.00 0.00 0.00 59 1009.2
20260505061003 59 168 2.0 5.0 0.00 0.00 0.00 59 1009.1
20260505060503 59 163 2.0 5.0 0.00 0.00 0.00 59 1009.0
20260505055502 59 185 3.0 8.0 0.00 0.00 0.00 58 1009.1
20260505055003 59 268 2.0 6.0 0.00 0.00 0.00 58 1009.1
20260505054503 59 206 2.0 6.0 0.00 0.00 0.00 57 1009.1
20260505053003 59 198 2.0 7.0 0.00 0.00 0.00 57 1009.1
20260505052503 59 213 2.0 3.0 0.00 0.00 0.00 57 1009.1
20260505052002 59 150 3.0 9.0 0.00 0.00 0.00 57 1009.2
20260505051503 59 159 4.0 9.0 0.00 0.00 0.00 57 1009.2
20260505051003 59 171 4.0 8.0 0.00 0.00 0.00 57 1009.1
20260505050503 59 141 5.0 12.0 0.00 0.00 0.00 56 1009.2
20260505041503 61 168 6.0 9.0 0.00 0.00 0.00 53 1009.3
20260505041002 61 161 6.0 14.0 0.00 0.00 0.00 52 1009.2
20260505040504 61 142 6.0 12.0 0.00 0.00 0.00 53 1009.1
20260505034503 60 153 6.0 10.0 0.00 0.00 0.00 52 1009.3
20260505034003 61 158 5.0 9.0 0.00 0.00 0.00 52 1009.2
20260505033003 61 164 5.0 10.0 0.00 0.00 0.00 51 1009.4
20260505032503 61 150 5.0 12.0 0.00 0.00 0.00 51 1009.5
20260505032003 61 142 4.0 8.0 0.00 0.00 0.00 52 1009.6
20260505031503 61 161 4.0 12.0 0.00 0.00 0.00 51 1009.5
20260505031003 61 163 3.0 7.0 0.00 0.00 0.00 51 1009.5
20260505030504 61 174 5.0 8.0 0.00 0.00 0.00 50 1009.5
20260505030003 62 173 5.0 12.0 0.00 0.00 0.00 50 1009.6
20260505025004 62 175 4.0 10.0 0.00 0.00 0.00 50 1009.7
20260505024503 62 146 3.0 8.0 0.00 0.00 0.00 50 1009.6
20260505024002 62 175 3.0 10.0 0.00 0.00 0.00 49 1009.6
20260505022004 63 154 3.0 6.0 0.00 0.00 0.00 48 1009.7
20260505021503 63 156 3.0 7.0 0.00 0.00 0.00 48 1009.8
20260505021003 63 160 3.0 7.0 0.00 0.00 0.00 48 1009.8
20260505020503 63 175 3.0 6.0 0.00 0.00 0.00 47 1009.7
20260505015506 63 153 3.0 6.0 0.00 0.00 0.00 47 1009.8
20260505015003 63 162 2.0 7.0 0.00 0.00 0.00 48 1009.9
20260505014003 63 163 3.0 7.0 0.00 0.00 0.00 48 1009.8